Colorado Springs, CO

2:26 AM MST on December 14, 2017 (GMT -0700)
City Of Colorado Springs Municipal

Weather History for KCOS - October, 2012

Change the Weather History Date:

Wednesday, October 31, 2012

  Actual Average Record
Temperature  
Mean Temperature 55 °F 44 °F  
Max Temperature 71 °F 58 °F 80 °F (2016)
Min Temperature 38 °F 31 °F 10 °F (1991)
Degree Days  
Heating Degree Days 10 21  
Month to date heating degree days 482 485  
Since 1 July heating degree days 598 674  
Cooling Degree Days 0 0  
Month to date cooling degree days 0 1  
Year to date cooling degree days 873 455  
Growing Degree Days 4 (Base 50)    
Moisture  
Dew Point 21 °F    
Average Humidity 33    
Maximum Humidity 54    
Minimum Humidity 12    
Precipitation  
Precipitation 0.00 in 0.02 in 0.85 in (1972)
Month to date precipitation 0.14 0.82  
Year to date precipitation 7.83 15.80  
Snow  
Snow 0.00 in 0.10 in 13.80 in (1972)
Month to date snowfall 0.6 2.9  
Since 1 July snowfall 0.6 3.1  
Since 1 September snowfall 0.6 3.1  
Snow Depth 0.00 in    
Sea Level Pressure  
Sea Level Pressure 30.09 in    
Wind  
Wind Speed 7 mph (North)    
Max Wind Speed 15 mph    
Max Gust Speed 17 mph    
Visibility 10 miles    
Events      
T = Trace of Precipitation, MM = Missing Value Source: NWS Daily Summary

Daily Weather History Graph

Daily Weather History Graph

Search for Another Location

Airport or City:

Trip Planner

Search our weather history database for the weather conditions in past years. The results will help you decide how hot, cold, wet, or windy it might be!

Date:

Astronomy

Oct. 31, 2012 Rise Set
Actual Time 7:25 AM MDT 5:58 PM MDT
Civil Twilight 6:57 AM MDT 6:26 PM MDT
Nautical Twilight 6:26 AM MDT 6:57 PM MDT
Astronomical Twilight 5:55 AM MDT 7:28 PM MDT
Moon 7:13 PM MDT (10/31) 9:07 AM MDT (10/31)
Length of Visible Light 11h 28m
Length of Day
10h 33m
Full, 97% of the Moon is Illuminated
Oct 31
Full
Nov 6
Last Quarter
Nov 13
New
Nov 20
First Quarter
Nov 28
Full

Hourly Weather History & Observations

Time (MDT) Temp. Windchill Dew Point Humidity Pressure Visibility Wind Dir Wind Speed Gust Speed Precip Events Conditions
12:54 AM 42.1 °F 37.1 °F 25.0 °F 51% 30.09 in 10.0 mi NE 8.1 mph - N/A   Clear
1:54 AM 39.9 °F 34.5 °F 24.1 °F 53% 30.09 in 10.0 mi NNE 8.1 mph - N/A   Partly Cloudy
2:54 AM 39.9 °F 33.9 °F 25.0 °F 55% 30.08 in 10.0 mi NNE 9.2 mph - N/A   Partly Cloudy
3:54 AM 41.0 °F 34.3 °F 25.0 °F 53% 30.07 in 10.0 mi NNE 11.5 mph - N/A   Clear
4:54 AM 44.1 °F 38.1 °F 24.1 °F 45% 30.06 in 10.0 mi North 11.5 mph - N/A   Clear
5:54 AM 45.0 °F 42.6 °F 23.0 °F 42% 30.08 in 10.0 mi North 4.6 mph - N/A   Clear
6:54 AM 42.1 °F 37.1 °F 21.9 °F 45% 30.10 in 10.0 mi North 8.1 mph - N/A   Clear
7:54 AM 43.0 °F 40.3 °F 21.9 °F 43% 30.15 in 10.0 mi WSW 4.6 mph - N/A   Clear
8:54 AM 52.0 °F - 21.9 °F 31% 30.14 in 10.0 mi WNW 3.5 mph - N/A   Clear
9:54 AM 59.0 °F - 21.9 °F 24% 30.12 in 10.0 mi WSW 5.8 mph - N/A   Clear
10:54 AM 64.9 °F - 19.0 °F 17% 30.09 in 10.0 mi West 3.5 mph - N/A   Clear
11:54 AM 68.0 °F - 15.1 °F 13% 30.06 in 10.0 mi Variable 4.6 mph - N/A   Clear
12:54 PM 69.1 °F - 16.0 °F 13% 30.06 in 10.0 mi Variable 3.5 mph - N/A   Clear
1:54 PM 70.0 °F - 16.0 °F 13% 30.05 in 10.0 mi WNW 4.6 mph - N/A   Partly Cloudy
2:54 PM 69.1 °F - 16.0 °F 13% 30.03 in 10.0 mi Variable 4.6 mph - N/A   Partly Cloudy
3:54 PM 69.1 °F - 17.1 °F 14% 30.03 in 10.0 mi South 10.4 mph - N/A   Partly Cloudy
4:54 PM 68.0 °F - 17.1 °F 14% 30.03 in 10.0 mi South 8.1 mph - N/A   Partly Cloudy
5:54 PM 61.0 °F - 18.0 °F 19% 30.06 in 10.0 mi South 9.2 mph - N/A   Clear
6:54 PM 57.9 °F - 23.0 °F 26% 30.12 in 10.0 mi ENE 9.2 mph - N/A   Clear
7:54 PM 53.1 °F - 24.1 °F 32% 30.15 in 10.0 mi NE 8.1 mph - N/A   Clear
8:54 PM 51.1 °F - 23.0 °F 33% 30.12 in 10.0 mi NE 8.1 mph - N/A   Clear
9:54 PM 48.9 °F - 24.1 °F 38% 30.11 in 10.0 mi NNW 6.9 mph - N/A   Clear
10:54 PM 46.0 °F 44.8 °F 23.0 °F 40% 30.09 in 10.0 mi NNW 3.5 mph - N/A   Clear
11:54 PM 44.1 °F 41.5 °F 23.0 °F 43% 30.09 in 10.0 mi North 4.6 mph - N/A   Clear